RH
21 27 54 66 59 57 74 79 70 82 82 72 58 45 46 49 51 52 72 79 84 68 85 87 95 97 93 93 88 86 87 85 86 72 46 40 41 56
26 27 31 64 68 49 53 80 87 76 67 64 70 73 67 58 57 56 53 60 72 68 60 78 94 88 97 95 85 92 83 75 92 85 75 46 45 44
41 32 56 34 69 61 42 58 82 87 79 62 71 70 72 68 59 58 57 52 56 60 49 64 95 88 92 92 86 85 76 90 93 88 92 80 61 74
52 46 62 69 78 71 57 37 61 79 82 62 72 65 63 74 74 80 78 73 65 65 95 88 87 86 84 68 64 84 82 89 91 74 85 80 63 66
56 58 77 88 75 73 72 76 53 53 74 65 63 74 75 91 92 88 84 78 73 75 69 68 78 77 61 42 36 47 57 74 46 50 92 95 98 99
71 65 85 85 80 80 78 74 67 67 71 66 64 69 78 87 99 97 88 80 80 80 68 59 56 57 38 65 74 76 66 62 88 99 90 99 99 100
96 82 77 86 75 70 69 69 67 66 67 64 61 65 68 76 85 81 84 79 66 58 57 50 35 34 89 84 74 75 95 94 89 95 96 99 98 99
95 82 77 81 76 69 64 58 54 58 59 59 55 56 64 63 64 57 58 68 56 47 39 39 28 35 77 49 40 44 84 70 100 99 99 99 100 100
90 88 80 73 62 57 59 67 74 82 86 82 80 76 78 63 54 52 52 44 28 28 18 14 18 32 44 37 43 32 40 84 82 74 71 95 99 97
67 81 78 70 64 67 68 71 77 82 82 84 84 80 74 70 74 75 62 56 60 50 38 23 18 38 67 71 74 72 48 63 89 93 84 86 85 95
49 51 70 72 59 59 72 68 70 67 69 74 75 73 70 76 83 79 70 80 78 76 85 88 74 68 87 76 99 94 88 87 87 97 100 96 86 89
65 59 54 55 59 70 86 88 94 78 67 66 77 85 81 73 75 82 99 99 86 83 78 75 85 100 91 91 99 100 96 92 100 99 93 92 94 94
66 67 68 68 63 66 76 82 83 78 74 64 73 81 97 99 93 98 99 82 100 94 80 100 100 99 99 100 99 98 95 87 85 84 80 78 75 68
90 86 80 76 69 66 81 94 84 82 87 100 89 100 100 97 99 100 99 98 98 98 99 99 100 100 100 98 92 81 75 74 60 37 20 7 3 3
100 100 100 98 97 97 98 98 98 99 95 89 99 99 99 99 99 98 98 99 99 99 100 98 84 59 35 18 11 6 4 4 4 5 6 6 7 8
40 93 100 100 100 100 100 99 100 99 99 100 99 99 97 97 95 94 70 23 11 8 7 6 4 4 4 5 5 6 7 7 7 7 7 8 10 12
8 7 7 10 15 17 12 9 10 16 25 29 25 18 13 10 8 8 8 7 6 5 5 5 6 8 8 10 10 9 8 9 10 10 10 10 11 11
11 12 13 12 12 11 10 10 10 10 10 11 11 11 11 10 9 8 7 7 7 9 12 13 12 12 11 11 9 10 12 13 14 12 10 9 9 15
11 12 12 13 15 16 17 16 16 15 15 14 13 13 12 12 11 11 12 12 13 14 15 16 17 16 14 13 14 15 17 18 14 13 14 12 17 20
9 10 12 13 14 14 16 18 20 20 18 17 17 16 15 14 15 16 17 17 19 20 21 22 21 20 19 19 20 22 19 18 19 19 18 22 22 30
10 9 10 13 16 17 18 21 22 22 22 21 21 20 19 16 17 20 20 20 21 24 26 28 27 26 24 24 23 26 29 25 23 24 26 28 30 35
9 9 10 11 14 18 20 22 25 26 26 25 25 25 24 20 19 24 28 30 31 31 33 34 33 32 30 29 31 32 37 38 36 38 38 38 38 39
10 10 11 12 18 22 25 26 27 29 30 29 30 30 28 24 23 28 34 37 39 39 40 40 40 38 35 34 36 40 45 49 49 48 50 53 50 53
Wind_Speed
44 44 46 51 54 53 50 54 52 53 50 49 58 60 55 50 46 41 40 40 41 44 42 42 42 40 41 41 42 42 43 40 42 42 42 40 39 38
45 43 43 44 48 51 53 50 51 51 55 53 49 48 52 53 50 46 44 41 45 43 47 45 44 43 44 41 44 45 46 45 43 44 44 42 41 41
41 42 40 40 41 43 47 52 49 47 51 52 47 47 46 47 48 48 47 47 47 44 47 47 43 43 45 45 44 46 47 46 44 42 45 46 43 42
36 33 33 34 33 37 40 46 52 48 46 51 47 46 44 43 43 42 43 45 46 46 42 41 44 44 46 46 48 50 50 49 50 47 43 43 48 47
25 23 24 26 30 31 33 35 43 46 44 47 48 44 41 40 41 45 44 41 43 42 45 45 44 45 47 47 51 53 53 53 51 48 43 49 52 50
16 18 21 26 26 28 28 31 35 39 40 43 46 46 43 42 42 41 39 39 39 40 40 42 46 48 46 43 41 43 47 46 44 46 48 51 46 45
15 15 20 24 27 25 25 27 27 32 36 37 40 41 42 41 43 38 41 40 38 41 43 45 42 42 41 40 41 37 36 37 44 45 50 50 45 45
20 20 21 23 25 24 24 24 27 28 31 33 35 37 38 38 40 40 41 44 40 41 44 44 44 47 47 44 41 41 39 37 45 44 40 48 43 43
22 23 23 24 25 26 27 29 28 29 31 32 34 36 36 35 37 40 41 40 37 34 36 41 40 42 40 35 36 39 43 45 51 46 46 50 42 41
19 21 25 23 24 26 27 28 28 30 29 30 31 33 33 32 31 28 29 31 31 30 30 35 32 32 33 32 33 37 39 40 38 40 42 43 44 43
22 21 21 24 23 24 24 26 27 28 27 29 30 31 32 30 30 34 33 36 33 34 35 32 30 32 32 35 31 34 37 39 41 42 39 39 43 47
23 22 23 24 24 25 27 29 29 29 29 28 29 31 33 34 33 32 32 37 37 39 40 38 35 30 35 36 34 33 41 39 37 35 39 39 40 44
21 26 25 25 25 26 29 32 34 33 33 31 32 32 30 31 29 33 32 34 34 41 37 36 36 39 38 36 33 33 35 38 42 45 46 48 51 53
19 20 22 25 27 29 27 30 33 34 30 27 30 33 36 33 34 37 35 35 39 42 32 31 31 30 32 33 35 36 41 46 49 48 47 46 46 46
8 10 14 22 22 25 29 32 35 33 35 37 34 37 39 41 35 37 34 30 23 23 25 27 31 34 36 37 36 34 36 36 39 38 38 38 39 42
13 13 13 13 15 16 17 16 15 14 19 20 19 20 20 20 21 19 20 22 22 23 24 25 27 28 29 30 31 29 32 30 31 35 36 37 38 37
12 12 14 16 18 19 19 18 17 17 17 18 19 19 18 18 18 18 18 19 20 22 23 23 23 24 27 28 28 31 31 31 32 31 32 32 33 35
11 13 13 13 13 14 14 15 15 15 15 15 15 15 16 16 16 17 17 18 19 20 22 24 26 26 25 25 27 29 31 31 32 30 31 36 36 36
15 13 13 14 15 14 13 14 14 14 14 15 15 16 16 17 18 18 19 19 20 22 23 24 25 25 25 24 25 30 29 30 30 29 33 36 41 38
17 17 15 15 15 16 15 16 16 16 15 16 17 18 18 19 19 20 20 20 21 21 22 23 23 24 25 26 25 26 32 31 31 31 33 36 36 38
20 19 19 17 15 16 17 17 16 17 19 20 20 21 21 21 20 20 21 21 21 21 21 22 24 25 25 27 26 24 26 29 29 31 33 34 34 32
19 20 19 19 18 17 17 17 18 18 19 19 20 21 21 22 22 21 20 20 20 21 22 23 24 25 26 26 25 24 20 23 26 29 31 31 34 36
20 19 19 20 19 18 17 17 17 18 19 20 20 20 21 21 20 20 20 20 19 20 21 22 24 25 25 26 24 21 18 19 19 22 27 29 30 30
Wind_Direction
267 265 262 254 246 240 242 244 248 250 252 252 253 253 254 254 250 252 256 258 257 262 255 254 257 259 258 261 263 268 272 270 272 270 272 272 270 270
268 263 261 257 252 246 237 239 243 248 253 251 253 254 252 251 251 248 247 246 248 252 257 255 254 256 259 260 266 266 271 273 267 269 269 269 272 271
272 265 258 258 252 250 244 239 240 243 250 252 253 254 254 251 249 251 251 249 250 255 251 252 253 255 256 261 265 265 269 266 264 265 265 267 271 268
275 261 254 254 249 249 248 241 239 243 248 253 255 254 255 256 252 248 247 247 248 247 250 253 253 255 258 264 265 261 261 261 264 267 264 267 265 270
272 248 248 251 250 247 246 243 239 242 246 249 255 253 250 251 256 254 248 248 249 252 252 254 254 256 261 263 265 259 259 259 262 262 258 265 263 269
276 249 243 250 248 244 245 244 243 245 249 251 254 255 252 251 254 253 246 249 250 252 253 255 255 256 260 260 263 261 261 262 259 259 255 262 263 270
282 254 247 247 244 242 245 244 247 248 251 255 255 256 254 255 261 256 252 250 249 251 248 251 256 254 252 261 265 265 263 266 261 254 260 262 266 266
263 249 245 249 250 247 248 250 250 250 251 251 253 252 255 255 256 255 254 253 252 250 252 252 250 253 255 264 267 266 263 268 254 261 265 265 260 257
265 254 245 243 247 247 245 246 248 246 247 249 252 251 252 253 252 251 254 260 261 259 255 251 250 253 257 260 263 261 257 256 261 264 265 264 265 259
266 259 252 253 258 256 254 255 256 257 259 260 262 263 260 260 263 264 265 264 263 259 253 254 247 245 249 259 259 261 257 254 263 265 270 268 266 270
257 261 264 253 258 257 261 261 262 263 264 263 265 267 265 263 266 266 265 264 260 256 259 263 257 258 255 254 259 253 251 254 258 269 268 267 268 262
256 257 256 260 260 257 258 261 261 260 264 259 259 263 264 259 257 258 262 268 264 265 263 254 258 266 257 261 253 260 255 256 264 269 266 268 266 266
258 255 255 253 253 255 258 262 264 263 265 263 262 264 256 270 254 257 266 257 261 264 260 254 263 265 262 261 259 259 264 271 271 271 270 270 270 269
268 265 266 262 258 255 256 262 262 262 259 260 255 263 264 267 259 262 266 275 270 263 252 247 253 257 262 265 266 269 270 270 269 269 270 270 271 271
281 281 272 259 264 266 266 264 257 249 247 256 258 257 265 267 264 268 261 256 253 256 256 257 259 262 266 269 270 270 269 268 271 271 269 270 270 273
276 269 268 268 269 270 274 279 277 261 250 255 259 262 271 270 270 269 267 265 263 263 263 264 267 271 274 276 279 280 277 276 272 269 270 274 278 279
291 275 269 269 270 272 275 274 272 270 269 268 268 269 267 264 262 262 263 265 267 270 271 274 278 283 284 285 287 287 285 283 277 277 284 285 285 286
303 297 287 276 266 262 264 267 266 264 263 263 263 263 264 266 265 263 264 269 275 277 278 279 280 281 282 285 288 290 290 289 290 294 295 296 298 299
302 294 289 288 283 275 265 259 260 262 265 267 269 271 273 274 275 277 278 276 273 271 272 277 283 288 293 296 299 296 293 294 294 295 297 299 303 305
300 299 297 295 291 288 284 283 280 274 271 271 270 271 272 275 277 276 274 274 274 275 278 283 289 297 303 307 309 304 300 298 297 297 298 301 303 310
300 299 297 294 293 293 292 287 281 281 282 280 278 277 275 272 272 275 278 278 279 280 284 290 295 300 305 310 309 307 303 300 300 301 302 306 309 312
295 296 295 295 296 295 295 295 294 291 286 283 281 279 277 276 276 278 279 280 283 285 289 292 296 302 306 309 310 310 306 303 305 307 311 317 323 322
292 293 293 293 293 293 294 293 294 295 295 293 288 282 278 274 272 274 279 283 286 288 291 293 296 300 304 308 309 309 310 306 304 314 319 324 322 317